Year,Month,Day,Hour,Minute,Value (Times are PST for temperature in C)
2008,08,18,00,00,19.50
2008,08,18,00,01,19.50
2008,08,18,00,02,19.50
2008,08,18,00,03,19.40
2008,08,18,00,04,19.40
2008,08,18,00,05,19.40
2008,08,18,00,06,19.40
2008,08,18,00,07,19.40
2008,08,18,00,08,19.40
2008,08,18,00,09,19.40
2008,08,18,00,10,19.40
2008,08,18,00,11,19.40
2008,08,18,00,12,19.40
2008,08,18,00,13,19.40
2008,08,18,00,14,19.40
2008,08,18,00,15,19.40
2008,08,18,00,16,19.40
2008,08,18,00,17,19.40
2008,08,18,00,18,19.40
2008,08,18,00,19,19.30
2008,08,18,00,20,19.30
2008,08,18,00,21,19.30
2008,08,18,00,22,19.30
2008,08,18,00,23,19.30
2008,08,18,00,24,19.30
2008,08,18,00,25,19.30
2008,08,18,00,26,19.30
2008,08,18,00,27,19.30
2008,08,18,00,28,19.30
2008,08,18,00,29,19.30
2008,08,18,00,30,19.20
2008,08,18,00,31,19.20
2008,08,18,00,32,19.20
2008,08,18,00,33,19.20
2008,08,18,00,34,19.20
2008,08,18,00,35,19.20
2008,08,18,00,36,19.10
2008,08,18,00,37,19.10
2008,08,18,00,38,19.10
2008,08,18,00,39,19.10
2008,08,18,00,40,19.10
2008,08,18,00,41,19.00
2008,08,18,00,42,19.00
2008,08,18,00,43,19.00
2008,08,18,00,44,18.90
2008,08,18,00,45,18.90
2008,08,18,00,46,18.90
2008,08,18,00,47,18.90
2008,08,18,00,48,18.80
2008,08,18,00,49,18.80
2008,08,18,00,50,18.80
2008,08,18,00,51,18.70
2008,08,18,00,52,18.70
2008,08,18,00,53,18.70
2008,08,18,00,54,18.70
2008,08,18,00,55,18.70
2008,08,18,00,56,18.70
2008,08,18,00,57,18.70
2008,08,18,00,58,18.70
2008,08,18,00,59,18.70
2008,08,18,01,00,18.70
2008,08,18,01,01,18.70
2008,08,18,01,02,18.70
2008,08,18,01,03,18.70
2008,08,18,01,04,18.70
2008,08,18,01,05,18.70
2008,08,18,01,06,18.70
2008,08,18,01,07,18.70
2008,08,18,01,08,18.70
2008,08,18,01,09,18.70
2008,08,18,01,10,18.70
2008,08,18,01,11,18.70
2008,08,18,01,12,18.70
2008,08,18,01,13,18.70
2008,08,18,01,14,18.70
2008,08,18,01,15,18.70
2008,08,18,01,16,18.70
2008,08,18,01,17,18.70
2008,08,18,01,18,18.70
2008,08,18,01,19,18.70
2008,08,18,01,20,18.70
2008,08,18,01,21,18.70
2008,08,18,01,22,18.70
2008,08,18,01,23,18.70
2008,08,18,01,24,18.70
2008,08,18,01,25,18.70
2008,08,18,01,26,18.70
2008,08,18,01,27,18.70
2008,08,18,01,28,18.70
2008,08,18,01,29,18.60
2008,08,18,01,30,18.60
2008,08,18,01,31,18.60
2008,08,18,01,32,18.60
2008,08,18,01,33,18.60
2008,08,18,01,34,18.70
2008,08,18,01,35,18.70
2008,08,18,01,36,18.80
2008,08,18,01,37,18.80
2008,08,18,01,38,18.80
2008,08,18,01,39,18.80
2008,08,18,01,40,18.80
2008,08,18,01,41,18.80
2008,08,18,01,42,18.80
2008,08,18,01,43,18.80
2008,08,18,01,44,18.80
2008,08,18,01,45,18.80
2008,08,18,01,46,18.80
2008,08,18,01,47,18.80
2008,08,18,01,48,18.80
2008,08,18,01,49,18.70
2008,08,18,01,50,18.70
2008,08,18,01,51,18.70
2008,08,18,01,52,18.70
2008,08,18,01,53,18.70
2008,08,18,01,54,18.80
2008,08,18,01,55,18.80
2008,08,18,01,56,18.80
2008,08,18,01,57,18.80
2008,08,18,01,58,18.90
2008,08,18,01,59,19.00
2008,08,18,02,00,19.00
2008,08,18,02,01,19.20
2008,08,18,02,02,19.40
2008,08,18,02,03,19.90
2008,08,18,02,04,20.20
2008,08,18,02,05,20.60
2008,08,18,02,06,20.90
2008,08,18,02,07,21.10
2008,08,18,02,08,21.30
2008,08,18,02,09,21.50
2008,08,18,02,10,21.60
2008,08,18,02,11,21.80
2008,08,18,02,12,21.80
2008,08,18,02,13,21.90
2008,08,18,02,14,22.00
2008,08,18,02,15,22.00
2008,08,18,02,16,22.10
2008,08,18,02,17,22.10
2008,08,18,02,18,22.10
2008,08,18,02,19,22.10
2008,08,18,02,20,22.10
2008,08,18,02,21,22.20
2008,08,18,02,22,22.20
2008,08,18,02,23,22.20
2008,08,18,02,24,22.20
2008,08,18,02,25,22.20
2008,08,18,02,26,22.20
2008,08,18,02,27,22.10
2008,08,18,02,28,22.10
2008,08,18,02,29,22.20
2008,08,18,02,30,22.20
2008,08,18,02,31,22.30
2008,08,18,02,32,22.30
2008,08,18,02,33,22.30
2008,08,18,02,34,22.30
2008,08,18,02,35,22.30
2008,08,18,02,36,22.30
2008,08,18,02,37,22.30
2008,08,18,02,38,22.30
2008,08,18,02,39,22.30
2008,08,18,02,40,22.30
2008,08,18,02,41,22.30
2008,08,18,02,42,22.30
2008,08,18,02,43,22.30
2008,08,18,02,44,22.30
2008,08,18,02,45,22.30
2008,08,18,02,46,22.30
2008,08,18,02,47,22.30
2008,08,18,02,48,22.30
2008,08,18,02,49,22.30
2008,08,18,02,50,22.30
2008,08,18,02,51,22.20
2008,08,18,02,52,22.20
2008,08,18,02,53,22.20
2008,08,18,02,54,22.20
2008,08,18,02,55,22.10
2008,08,18,02,56,22.10
2008,08,18,02,57,22.00
2008,08,18,02,58,22.00
2008,08,18,02,59,21.90
2008,08,18,03,00,21.90
2008,08,18,03,01,21.80
2008,08,18,03,02,21.80
2008,08,18,03,03,21.70
2008,08,18,03,04,21.70
2008,08,18,03,05,21.70
2008,08,18,03,06,21.60
2008,08,18,03,07,21.50
2008,08,18,03,08,21.40
2008,08,18,03,09,21.30
2008,08,18,03,10,21.30
2008,08,18,03,11,21.30
2008,08,18,03,12,21.30
2008,08,18,03,13,21.30
2008,08,18,03,14,21.20
2008,08,18,03,15,21.20
2008,08,18,03,16,21.20
2008,08,18,03,17,21.10
2008,08,18,03,18,21.10
2008,08,18,03,19,21.10
2008,08,18,03,20,21.00
2008,08,18,03,21,21.00
2008,08,18,03,22,20.90
2008,08,18,03,23,20.90
2008,08,18,03,24,20.80
2008,08,18,03,25,20.80
2008,08,18,03,26,20.80
2008,08,18,03,27,20.80
2008,08,18,03,28,20.70
2008,08,18,03,29,20.70
2008,08,18,03,30,20.70
2008,08,18,03,31,20.70
2008,08,18,03,32,20.70
2008,08,18,03,33,20.70
2008,08,18,03,34,20.60
2008,08,18,03,35,20.60
2008,08,18,03,36,20.60
2008,08,18,03,37,20.50
2008,08,18,03,38,20.50
2008,08,18,03,39,20.40
2008,08,18,03,40,20.40
2008,08,18,03,41,20.30
2008,08,18,03,42,20.30
2008,08,18,03,43,20.20
2008,08,18,03,44,20.20
2008,08,18,03,45,20.30
2008,08,18,03,46,20.30
2008,08,18,03,47,20.40
2008,08,18,03,48,20.40
2008,08,18,03,49,20.40
2008,08,18,03,50,20.50
2008,08,18,03,51,20.50
2008,08,18,03,52,20.50
2008,08,18,03,53,20.50
2008,08,18,03,54,20.40
2008,08,18,03,55,20.40
2008,08,18,03,56,20.40
2008,08,18,03,57,20.40
2008,08,18,03,58,20.30
2008,08,18,03,59,20.30
2008,08,18,04,00,20.30
2008,08,18,04,01,20.20
2008,08,18,04,02,20.10
2008,08,18,04,03,19.90
2008,08,18,04,04,19.70
2008,08,18,04,05,19.60
2008,08,18,04,06,19.50
2008,08,18,04,07,19.30
2008,08,18,04,08,19.20
2008,08,18,04,09,19.10
2008,08,18,04,10,19.00
2008,08,18,04,11,18.90
2008,08,18,04,12,18.80
2008,08,18,04,13,18.70
2008,08,18,04,14,18.60
2008,08,18,04,15,18.50
2008,08,18,04,16,18.40
2008,08,18,04,17,18.30
2008,08,18,04,18,18.20
2008,08,18,04,19,18.00
2008,08,18,04,20,18.00
2008,08,18,04,21,17.90
2008,08,18,04,22,17.80
2008,08,18,04,23,17.70
2008,08,18,04,24,17.50
2008,08,18,04,25,17.40
2008,08,18,04,26,17.30
2008,08,18,04,27,17.30
2008,08,18,04,28,17.30
2008,08,18,04,29,17.20
2008,08,18,04,30,17.20
2008,08,18,04,31,17.10
2008,08,18,04,32,17.10
2008,08,18,04,33,17.00
2008,08,18,04,34,17.00
2008,08,18,04,35,16.90
2008,08,18,04,36,16.90
2008,08,18,04,37,16.90
2008,08,18,04,38,16.90
2008,08,18,04,39,16.90
2008,08,18,04,40,16.90
2008,08,18,04,41,16.90
2008,08,18,04,42,17.00
2008,08,18,04,43,17.00
2008,08,18,04,44,17.10
2008,08,18,04,45,17.10
2008,08,18,04,46,17.10
2008,08,18,04,47,17.10
2008,08,18,04,48,17.10
2008,08,18,04,49,17.10
2008,08,18,04,50,17.10
2008,08,18,04,51,17.10
2008,08,18,04,52,17.10
2008,08,18,04,53,17.10
2008,08,18,04,54,17.10
2008,08,18,04,55,17.10
2008,08,18,04,56,17.10
2008,08,18,04,57,17.10
2008,08,18,04,58,17.10
2008,08,18,04,59,17.10
2008,08,18,05,00,17.10
2008,08,18,05,01,17.10
2008,08,18,05,02,17.20
2008,08,18,05,03,17.20
2008,08,18,05,04,17.20
2008,08,18,05,05,17.20
2008,08,18,05,06,17.20
2008,08,18,05,07,17.20
2008,08,18,05,08,17.20
2008,08,18,05,09,17.20
2008,08,18,05,10,17.20
2008,08,18,05,11,17.20
2008,08,18,05,12,17.20
2008,08,18,05,13,17.20
2008,08,18,05,14,17.20
2008,08,18,05,15,17.20
2008,08,18,05,16,17.20
2008,08,18,05,17,17.20
2008,08,18,05,18,17.20
2008,08,18,05,19,17.20
2008,08,18,05,20,17.20
2008,08,18,05,21,17.20
2008,08,18,05,22,17.20
2008,08,18,05,23,17.20
2008,08,18,05,24,17.20
2008,08,18,05,25,17.20
2008,08,18,05,26,17.20
2008,08,18,05,27,17.20
2008,08,18,05,28,17.20
2008,08,18,05,29,17.20
2008,08,18,05,30,17.20
2008,08,18,05,31,17.20
2008,08,18,05,32,17.20
2008,08,18,05,33,17.10
2008,08,18,05,34,17.10
2008,08,18,05,35,17.10
2008,08,18,05,36,17.10
2008,08,18,05,37,17.10
2008,08,18,05,38,17.10
2008,08,18,05,39,17.10
2008,08,18,05,40,17.10
2008,08,18,05,41,17.10
2008,08,18,05,42,17.10
2008,08,18,05,43,17.10
2008,08,18,05,44,17.00
2008,08,18,05,45,17.00
2008,08,18,05,46,17.00
2008,08,18,05,47,17.00
2008,08,18,05,48,17.00
2008,08,18,05,49,17.00
2008,08,18,05,50,17.00
2008,08,18,05,51,17.00
2008,08,18,05,52,17.00
2008,08,18,05,53,17.00
2008,08,18,05,54,17.00
2008,08,18,05,55,17.00
2008,08,18,05,56,17.10
2008,08,18,05,57,17.10
2008,08,18,05,58,17.10
2008,08,18,05,59,17.10
2008,08,18,06,00,17.10
2008,08,18,06,01,17.10
2008,08,18,06,02,17.10
2008,08,18,06,03,17.10
2008,08,18,06,04,17.10
2008,08,18,06,05,17.10
2008,08,18,06,06,17.10
2008,08,18,06,07,17.10
2008,08,18,06,08,17.10
2008,08,18,06,09,17.10
2008,08,18,06,10,17.10
2008,08,18,06,11,17.10
2008,08,18,06,12,17.10
2008,08,18,06,13,17.10
2008,08,18,06,14,17.10
2008,08,18,06,15,17.10
2008,08,18,06,16,17.10
2008,08,18,06,17,17.00
2008,08,18,06,18,17.00
2008,08,18,06,19,17.00
2008,08,18,06,20,17.00
2008,08,18,06,21,16.90
2008,08,18,06,22,16.90
2008,08,18,06,23,16.90
2008,08,18,06,24,16.80
2008,08,18,06,25,16.80
2008,08,18,06,26,16.80
2008,08,18,06,27,16.70
2008,08,18,06,28,16.70
2008,08,18,06,29,16.70
2008,08,18,06,30,16.70
2008,08,18,06,31,16.60
2008,08,18,06,32,16.60
2008,08,18,06,33,16.60
2008,08,18,06,34,16.50
2008,08,18,06,35,16.50
2008,08,18,06,36,16.40
2008,08,18,06,37,16.30
2008,08,18,06,38,16.30
2008,08,18,06,39,16.20
2008,08,18,06,40,16.10
2008,08,18,06,41,16.10
2008,08,18,06,42,16.10
2008,08,18,06,43,16.00
2008,08,18,06,44,16.00
2008,08,18,06,45,15.90
2008,08,18,06,46,15.90
2008,08,18,06,47,15.90
2008,08,18,06,48,15.90
2008,08,18,06,49,15.80
2008,08,18,06,50,15.80
2008,08,18,06,51,15.80
2008,08,18,06,52,15.80
2008,08,18,06,53,15.80
2008,08,18,06,54,15.80
2008,08,18,06,55,15.80
2008,08,18,06,56,15.80
2008,08,18,06,57,15.80
2008,08,18,06,58,15.80
2008,08,18,06,59,15.80
2008,08,18,07,00,15.80
2008,08,18,07,01,15.70
2008,08,18,07,02,15.70
2008,08,18,07,03,15.70
2008,08,18,07,04,15.70
2008,08,18,07,05,15.70
2008,08,18,07,06,15.60
2008,08,18,07,07,15.60
2008,08,18,07,08,15.60
2008,08,18,07,09,15.60
2008,08,18,07,10,15.60
2008,08,18,07,11,15.60
2008,08,18,07,12,15.50
2008,08,18,07,13,15.50
2008,08,18,07,14,15.50
2008,08,18,07,15,15.50
2008,08,18,07,16,15.50
2008,08,18,07,17,15.50
2008,08,18,07,18,15.50
2008,08,18,07,19,15.50
2008,08,18,07,20,15.50
2008,08,18,07,21,15.50
2008,08,18,07,22,15.50
2008,08,18,07,23,15.50
2008,08,18,07,24,15.50
2008,08,18,07,25,15.50
2008,08,18,07,26,15.60
2008,08,18,07,27,15.60
2008,08,18,07,28,15.60
2008,08,18,07,29,15.50
2008,08,18,07,30,15.50
2008,08,18,07,31,15.50
2008,08,18,07,32,15.50
2008,08,18,07,33,15.50
2008,08,18,07,34,15.50
2008,08,18,07,35,15.60
2008,08,18,07,36,15.60
2008,08,18,07,37,15.60
2008,08,18,07,38,15.60
2008,08,18,07,39,15.60
2008,08,18,07,40,15.60
2008,08,18,07,41,15.60
2008,08,18,07,42,15.70
2008,08,18,07,43,15.70
2008,08,18,07,44,15.70
2008,08,18,07,45,15.70
2008,08,18,07,46,15.70
2008,08,18,07,47,15.70
2008,08,18,07,48,15.70
2008,08,18,07,49,15.70
2008,08,18,07,50,15.70
2008,08,18,07,51,15.70
2008,08,18,07,52,15.70
2008,08,18,07,53,15.80
2008,08,18,07,54,15.80
2008,08,18,07,55,15.80
2008,08,18,07,56,15.90
2008,08,18,07,57,15.90
2008,08,18,07,58,16.00
2008,08,18,07,59,16.00
2008,08,18,08,00,16.10
2008,08,18,08,01,16.10
2008,08,18,08,02,16.20
2008,08,18,08,03,16.20
2008,08,18,08,04,16.20
2008,08,18,08,05,16.30
2008,08,18,08,06,16.30
2008,08,18,08,07,16.40
2008,08,18,08,08,16.50
2008,08,18,08,09,16.50
2008,08,18,08,10,16.60
2008,08,18,08,11,16.60
2008,08,18,08,12,16.70
2008,08,18,08,13,16.80
2008,08,18,08,14,16.80
2008,08,18,08,15,16.90
2008,08,18,08,16,16.90
2008,08,18,08,17,16.90
2008,08,18,08,18,16.80
2008,08,18,08,19,16.80
2008,08,18,08,20,16.80
2008,08,18,08,21,16.80
2008,08,18,08,22,16.80
2008,08,18,08,23,16.80
2008,08,18,08,24,16.90
2008,08,18,08,25,16.90
2008,08,18,08,26,16.90
2008,08,18,08,27,16.90
2008,08,18,08,28,17.00
2008,08,18,08,29,17.00
2008,08,18,08,30,17.10
2008,08,18,08,31,17.10
2008,08,18,08,32,17.20
2008,08,18,08,33,17.30
2008,08,18,08,34,17.30
2008,08,18,08,35,17.40
2008,08,18,08,36,17.40
2008,08,18,08,37,17.50
2008,08,18,08,38,17.70
2008,08,18,08,39,17.80
2008,08,18,08,40,17.90
2008,08,18,08,41,18.00
2008,08,18,08,42,18.10
2008,08,18,08,43,18.20
2008,08,18,08,44,18.30
2008,08,18,08,45,18.40
2008,08,18,08,46,18.50
2008,08,18,08,47,18.60
2008,08,18,08,48,18.70
2008,08,18,08,49,18.80
2008,08,18,08,50,18.80
2008,08,18,08,51,18.90
2008,08,18,08,52,19.00
2008,08,18,08,53,19.10
2008,08,18,08,54,19.20
2008,08,18,08,55,19.30
2008,08,18,08,56,19.40
2008,08,18,08,57,19.50
2008,08,18,08,58,19.60
2008,08,18,08,59,19.80
2008,08,18,09,00,19.90
2008,08,18,09,01,20.10
2008,08,18,09,02,20.20
2008,08,18,09,03,20.40
2008,08,18,09,04,20.50
2008,08,18,09,05,20.60
2008,08,18,09,06,20.60
2008,08,18,09,07,20.50
2008,08,18,09,08,20.50
2008,08,18,09,09,20.50
2008,08,18,09,10,20.60
2008,08,18,09,11,20.60
2008,08,18,09,12,20.70
2008,08,18,09,13,20.80
2008,08,18,09,14,20.90
2008,08,18,09,15,21.10
2008,08,18,09,16,21.20
2008,08,18,09,17,21.40
2008,08,18,09,18,21.50
2008,08,18,09,19,21.60
2008,08,18,09,20,21.80
2008,08,18,09,21,21.90
2008,08,18,09,22,22.00
2008,08,18,09,23,22.10
2008,08,18,09,24,22.20
2008,08,18,09,25,22.30
2008,08,18,09,26,22.30
2008,08,18,09,27,22.30
2008,08,18,09,28,22.40
2008,08,18,09,29,22.40
2008,08,18,09,30,22.50
2008,08,18,09,31,22.60
2008,08,18,09,32,22.60
2008,08,18,09,33,22.70
2008,08,18,09,34,22.80
2008,08,18,09,35,22.80
2008,08,18,09,36,22.90
2008,08,18,09,37,23.00
2008,08,18,09,38,23.00
2008,08,18,09,39,23.00
2008,08,18,09,40,23.10
2008,08,18,09,41,23.10
2008,08,18,09,42,23.10
2008,08,18,09,43,23.20
2008,08,18,09,44,23.20
2008,08,18,09,45,23.20
2008,08,18,09,46,23.30
2008,08,18,09,47,23.30
2008,08,18,09,48,23.40
2008,08,18,09,49,23.40
2008,08,18,09,50,23.50
2008,08,18,09,51,23.60
2008,08,18,09,52,23.70
2008,08,18,09,53,23.70
2008,08,18,09,54,23.60
2008,08,18,09,55,23.60
2008,08,18,09,56,23.50
2008,08,18,09,57,23.50
2008,08,18,09,58,23.40
2008,08,18,09,59,23.40
2008,08,18,10,00,23.50
2008,08,18,10,01,23.50
2008,08,18,10,02,23.60
2008,08,18,10,03,23.60
2008,08,18,10,04,23.70
2008,08,18,10,05,23.80
2008,08,18,10,06,23.90
2008,08,18,10,07,23.90
2008,08,18,10,08,24.00
2008,08,18,10,09,24.00
2008,08,18,10,10,24.10
2008,08,18,10,11,24.10
2008,08,18,10,12,24.10
2008,08,18,10,13,24.10
2008,08,18,10,14,24.10
2008,08,18,10,15,24.10
2008,08,18,10,16,24.10
2008,08,18,10,17,24.10
2008,08,18,10,18,24.10
2008,08,18,10,19,24.10
2008,08,18,10,20,24.10
2008,08,18,10,21,24.10
2008,08,18,10,22,24.10
2008,08,18,10,23,24.10
2008,08,18,10,24,24.10
2008,08,18,10,25,24.10
2008,08,18,10,26,24.20
2008,08,18,10,27,24.20
2008,08,18,10,28,24.20
2008,08,18,10,29,24.30
2008,08,18,10,30,24.40
2008,08,18,10,31,24.50
2008,08,18,10,32,24.50
2008,08,18,10,33,24.50
2008,08,18,10,34,24.60
2008,08,18,10,35,24.60
2008,08,18,10,36,24.60
2008,08,18,10,37,24.60
2008,08,18,10,38,24.60
2008,08,18,10,39,24.60
2008,08,18,10,40,24.60
2008,08,18,10,41,24.60
2008,08,18,10,42,24.70
2008,08,18,10,43,24.70
2008,08,18,10,44,24.70
2008,08,18,10,45,24.70
2008,08,18,10,46,24.70
2008,08,18,10,47,24.70
2008,08,18,10,48,24.80
2008,08,18,10,49,24.80
2008,08,18,10,50,24.80
2008,08,18,10,51,24.80
2008,08,18,10,52,24.80
2008,08,18,10,53,24.90
2008,08,18,10,54,24.90
2008,08,18,10,55,25.00
2008,08,18,10,56,25.00
2008,08,18,10,57,25.20
2008,08,18,10,58,25.30
2008,08,18,10,59,25.40
2008,08,18,11,00,25.50
2008,08,18,11,01,25.60
2008,08,18,11,02,25.70
2008,08,18,11,03,25.90
2008,08,18,11,04,25.90
2008,08,18,11,05,25.90
2008,08,18,11,06,26.00
2008,08,18,11,07,26.00
2008,08,18,11,08,26.10
2008,08,18,11,09,26.10
2008,08,18,11,10,26.20
2008,08,18,11,11,26.20
2008,08,18,11,12,26.10
2008,08,18,11,13,26.00
2008,08,18,11,14,26.00
2008,08,18,11,15,25.90
2008,08,18,11,16,25.90
2008,08,18,11,17,25.70
2008,08,18,11,18,25.60
2008,08,18,11,19,25.40
2008,08,18,11,20,25.30
2008,08,18,11,21,25.10
2008,08,18,11,22,24.90
2008,08,18,11,23,24.80
2008,08,18,11,24,24.70
2008,08,18,11,25,24.60
2008,08,18,11,26,24.40
2008,08,18,11,27,24.30
2008,08,18,11,28,24.10
2008,08,18,11,29,23.90
2008,08,18,11,30,23.80
2008,08,18,11,31,23.70
2008,08,18,11,32,23.50
2008,08,18,11,33,23.40
2008,08,18,11,34,23.30
2008,08,18,11,35,23.10
2008,08,18,11,36,23.00
2008,08,18,11,37,22.90
2008,08,18,11,38,22.80
2008,08,18,11,39,22.70
2008,08,18,11,40,22.50
2008,08,18,11,41,22.40
2008,08,18,11,42,22.30
2008,08,18,11,43,22.30
2008,08,18,11,44,22.30
2008,08,18,11,45,22.20
2008,08,18,11,46,22.20
2008,08,18,11,47,22.20
2008,08,18,11,48,22.20
2008,08,18,11,49,22.20
2008,08,18,11,50,22.10
2008,08,18,11,51,22.10
2008,08,18,11,52,22.10
2008,08,18,11,53,22.00
2008,08,18,11,54,22.00
2008,08,18,11,55,22.00
2008,08,18,11,56,22.00
2008,08,18,11,57,22.00
2008,08,18,11,58,22.00
2008,08,18,11,59,22.00
2008,08,18,12,00,22.10
2008,08,18,12,01,22.10
2008,08,18,12,02,22.10
2008,08,18,12,03,22.10
2008,08,18,12,04,22.10
2008,08,18,12,05,22.00
2008,08,18,12,06,22.00
2008,08,18,12,07,22.00
2008,08,18,12,08,22.00
2008,08,18,12,09,22.10
2008,08,18,12,10,22.10
2008,08,18,12,11,22.10
2008,08,18,12,12,22.10
2008,08,18,12,13,22.10
2008,08,18,12,14,22.10
2008,08,18,12,15,22.00
2008,08,18,12,16,22.10
2008,08,18,12,17,22.10
2008,08,18,12,18,22.20
2008,08,18,12,19,22.20
2008,08,18,12,20,22.30
2008,08,18,12,21,22.30
2008,08,18,12,22,22.40
2008,08,18,12,23,22.40
2008,08,18,12,24,22.40
2008,08,18,12,25,22.50
2008,08,18,12,26,22.50
2008,08,18,12,27,22.60
2008,08,18,12,28,22.70
2008,08,18,12,29,22.70
2008,08,18,12,30,22.80
2008,08,18,12,31,22.80
2008,08,18,12,32,22.80
2008,08,18,12,33,22.90
2008,08,18,12,34,22.90
2008,08,18,12,35,22.90
2008,08,18,12,36,22.90
2008,08,18,12,37,22.90
2008,08,18,12,38,22.90
2008,08,18,12,39,22.90
2008,08,18,12,40,22.90
2008,08,18,12,41,22.90
2008,08,18,12,42,22.80
2008,08,18,12,43,22.80
2008,08,18,12,44,22.80
2008,08,18,12,45,22.80
2008,08,18,12,46,22.80
2008,08,18,12,47,22.80
2008,08,18,12,48,22.80
2008,08,18,12,49,22.80
2008,08,18,12,50,22.80
2008,08,18,12,51,22.80
2008,08,18,12,52,22.80
2008,08,18,12,53,22.80
2008,08,18,12,54,22.70
2008,08,18,12,55,22.70
2008,08,18,12,56,22.60
2008,08,18,12,57,22.60
2008,08,18,12,58,22.40
2008,08,18,12,59,22.40
2008,08,18,13,00,22.40
2008,08,18,13,01,22.40
2008,08,18,13,02,22.40
2008,08,18,13,03,22.40
2008,08,18,13,04,22.40
2008,08,18,13,05,22.20
2008,08,18,13,06,22.10
2008,08,18,13,07,22.10
2008,08,18,13,08,22.10
2008,08,18,13,09,22.00
2008,08,18,13,10,22.00
2008,08,18,13,11,22.00
2008,08,18,13,12,21.90
2008,08,18,13,13,21.80
2008,08,18,13,14,21.80
2008,08,18,13,15,21.70
2008,08,18,13,16,21.70
2008,08,18,13,17,21.60
2008,08,18,13,18,21.60
2008,08,18,13,19,21.60
2008,08,18,13,20,21.60
2008,08,18,13,21,21.60
2008,08,18,13,22,21.60
2008,08,18,13,23,21.60
2008,08,18,13,24,21.60
2008,08,18,13,25,21.70
2008,08,18,13,26,21.70
2008,08,18,13,27,21.80
2008,08,18,13,28,21.80
2008,08,18,13,29,21.80
2008,08,18,13,30,21.80
2008,08,18,13,31,21.90
2008,08,18,13,32,21.90
2008,08,18,13,33,22.00
2008,08,18,13,34,22.00
2008,08,18,13,35,22.10
2008,08,18,13,36,22.10
2008,08,18,13,37,22.20
2008,08,18,13,38,22.20
2008,08,18,13,39,22.10
2008,08,18,13,40,22.10
2008,08,18,13,41,22.00
2008,08,18,13,42,22.00
2008,08,18,13,43,22.00
2008,08,18,13,44,22.10
2008,08,18,13,45,22.10
2008,08,18,13,46,22.10
2008,08,18,13,47,22.10
2008,08,18,13,48,22.10
2008,08,18,13,49,22.10
2008,08,18,13,50,22.00
2008,08,18,13,51,22.00
2008,08,18,13,52,21.90
2008,08,18,13,53,21.80
2008,08,18,13,54,21.80
2008,08,18,13,55,21.70
2008,08,18,13,56,21.70
2008,08,18,13,57,21.60
2008,08,18,13,58,21.60
2008,08,18,13,59,21.60
2008,08,18,14,00,21.60
2008,08,18,14,01,21.60
2008,08,18,14,02,21.50
2008,08,18,14,03,21.50
2008,08,18,14,04,21.40
2008,08,18,14,05,21.40
2008,08,18,14,06,21.50
2008,08,18,14,07,21.50
2008,08,18,14,08,21.60
2008,08,18,14,09,21.60
2008,08,18,14,10,21.60
2008,08,18,14,11,21.50
2008,08,18,14,12,21.40
2008,08,18,14,13,21.40
2008,08,18,14,14,21.30
2008,08,18,14,15,21.20
2008,08,18,14,16,21.10
2008,08,18,14,17,21.00
2008,08,18,14,18,20.80
2008,08,18,14,19,20.70
2008,08,18,14,20,20.70
2008,08,18,14,21,20.60
2008,08,18,14,22,20.60
2008,08,18,14,23,20.50
2008,08,18,14,24,20.40
2008,08,18,14,25,20.30
2008,08,18,14,26,20.30
2008,08,18,14,27,20.20
2008,08,18,14,28,20.20
2008,08,18,14,29,20.10
2008,08,18,14,30,20.00
2008,08,18,14,31,20.00
2008,08,18,14,32,19.90
2008,08,18,14,33,19.90
2008,08,18,14,34,19.90
2008,08,18,14,35,19.80
2008,08,18,14,36,19.70
2008,08,18,14,37,19.70
2008,08,18,14,38,19.70
2008,08,18,14,39,19.70
2008,08,18,14,40,19.70
2008,08,18,14,41,19.70
2008,08,18,14,42,19.70
2008,08,18,14,43,19.70
2008,08,18,14,44,19.70
2008,08,18,14,45,19.70
2008,08,18,14,46,19.70
2008,08,18,14,47,19.70
2008,08,18,14,48,19.70
2008,08,18,14,49,19.70
2008,08,18,14,50,19.70
2008,08,18,14,51,19.70
2008,08,18,14,52,19.70
2008,08,18,14,53,19.70
2008,08,18,14,54,19.70
2008,08,18,14,55,19.80
2008,08,18,14,56,19.90
2008,08,18,14,57,20.00
2008,08,18,14,58,20.00
2008,08,18,14,59,20.10
2008,08,18,15,00,20.20
2008,08,18,15,01,20.30
2008,08,18,15,02,20.40
2008,08,18,15,03,20.50
2008,08,18,15,04,20.60
2008,08,18,15,05,20.70
2008,08,18,15,06,20.80
2008,08,18,15,07,21.00
2008,08,18,15,08,21.10
2008,08,18,15,09,21.20
2008,08,18,15,10,21.20
2008,08,18,15,11,21.30
2008,08,18,15,12,21.40
2008,08,18,15,13,21.50
2008,08,18,15,14,21.60
2008,08,18,15,15,21.80
2008,08,18,15,16,21.80
2008,08,18,15,17,21.90
2008,08,18,15,18,21.90
2008,08,18,15,19,21.90
2008,08,18,15,20,21.90
2008,08,18,15,21,21.90
2008,08,18,15,22,22.00
2008,08,18,15,23,22.00
2008,08,18,15,24,22.10
2008,08,18,15,25,22.10
2008,08,18,15,26,22.20
2008,08,18,15,27,22.20
2008,08,18,15,28,22.30
2008,08,18,15,29,22.40
2008,08,18,15,30,22.40
2008,08,18,15,31,22.50
2008,08,18,15,32,22.60
2008,08,18,15,33,22.70
2008,08,18,15,34,22.70
2008,08,18,15,35,22.70
2008,08,18,15,36,22.80
2008,08,18,15,37,22.80
2008,08,18,15,38,22.80
2008,08,18,15,39,22.90
2008,08,18,15,40,23.00
2008,08,18,15,41,23.00
2008,08,18,15,42,22.90
2008,08,18,15,43,22.80
2008,08,18,15,44,22.60
2008,08,18,15,45,22.40
2008,08,18,15,46,22.30
2008,08,18,15,47,22.10
2008,08,18,15,48,22.00
2008,08,18,15,49,21.80
2008,08,18,15,50,21.80
2008,08,18,15,51,21.70
2008,08,18,15,52,21.70
2008,08,18,15,53,21.50
2008,08,18,15,54,21.20
2008,08,18,15,55,21.10
2008,08,18,15,56,20.90
2008,08,18,15,57,20.80
2008,08,18,15,58,20.80
2008,08,18,15,59,20.80
2008,08,18,16,00,20.80
2008,08,18,16,01,20.80
2008,08,18,16,02,20.90
2008,08,18,16,03,21.00
2008,08,18,16,04,21.10
2008,08,18,16,05,21.10
2008,08,18,16,06,21.20
2008,08,18,16,07,21.20
2008,08,18,16,08,21.30
2008,08,18,16,09,21.30
2008,08,18,16,10,21.30
2008,08,18,16,11,21.30
2008,08,18,16,12,21.40
2008,08,18,16,13,21.50
2008,08,18,16,14,21.60
2008,08,18,16,15,21.60
2008,08,18,16,16,21.70
2008,08,18,16,17,21.80
2008,08,18,16,18,21.80
2008,08,18,16,19,21.80
2008,08,18,16,20,21.80
2008,08,18,16,21,21.90
2008,08,18,16,22,21.90
2008,08,18,16,23,21.80
2008,08,18,16,24,21.80
2008,08,18,16,25,21.80
2008,08,18,16,26,21.80
2008,08,18,16,27,21.80
2008,08,18,16,28,21.70
2008,08,18,16,29,21.70
2008,08,18,16,30,21.60
2008,08,18,16,31,21.60
2008,08,18,16,32,21.60
2008,08,18,16,33,21.60
2008,08,18,16,34,21.50
2008,08,18,16,35,21.40
2008,08,18,16,36,21.40
2008,08,18,16,37,21.30
2008,08,18,16,38,21.30
2008,08,18,16,39,21.20
2008,08,18,16,40,21.20
2008,08,18,16,41,21.10
2008,08,18,16,42,21.10
2008,08,18,16,43,21.10
2008,08,18,16,44,21.00
2008,08,18,16,45,21.00
2008,08,18,16,46,20.90
2008,08,18,16,47,20.90
2008,08,18,16,48,20.80
2008,08,18,16,49,20.70
2008,08,18,16,50,20.60
2008,08,18,16,51,20.50
2008,08,18,16,52,20.50
2008,08,18,16,53,20.40
2008,08,18,16,54,20.30
2008,08,18,16,55,20.30
2008,08,18,16,56,20.30
2008,08,18,16,57,20.30
2008,08,18,16,58,20.30
2008,08,18,16,59,20.20
2008,08,18,17,00,20.10
2008,08,18,17,01,20.00
2008,08,18,17,02,20.00
2008,08,18,17,03,19.90
2008,08,18,17,04,19.80
2008,08,18,17,05,19.80
2008,08,18,17,06,19.70
2008,08,18,17,07,19.70
2008,08,18,17,08,19.60
2008,08,18,17,09,19.50
2008,08,18,17,10,19.40
2008,08,18,17,11,19.40
2008,08,18,17,12,19.30
2008,08,18,17,13,19.30
2008,08,18,17,14,19.20
2008,08,18,17,15,19.20
2008,08,18,17,16,19.20
2008,08,18,17,17,19.20
2008,08,18,17,18,19.20
2008,08,18,17,19,19.20